Starlink 3617

operational
NORAD ID: 51780 Int'l Des: 2022-017 Owner: SPXS Country: US Constellation: starlink
LEOCIRCULAR

关于 Starlink 3617

正在加载描述...

实时位置

正在加载3D地球...

即将过境

高度历史

Altitude vs Time

uPlot chart will show altitude changes over time

两行轨道根数

1 51780U 22017N 25306.39572876 .00004142 00000-0 27796-3 0 9991
2 51780 53.2175 190.5588 0001339 100.9937 259.1205 15.08864865203209
Epoch: Nov 2, 2025 • Age: 25 hours

当前状态

高度 558.5 km
速度 7.58 km/s
星下点 -51.90°S, 122.86°W
发射日期 Feb 25, 2022
运行时间 3.6 years
类型 internet

技术详情

分类 Payload
质量 297.00 kg
干质量 275.00 kg
总质量 297.00 kg
长度 0.20 m
直径 2.80 m
跨度 9.00 m
形状 Box + pan
制造商 SPXS
平台类型 Starlink
阶段状态 In Orbit
所有者/国家 SPXS/US

大型星座

Loading constellations...